26. September 2022

Uhrzeit Code Wetter Temp. Sichtweite Wolkendecke Wind METAR/SPECI
02:00
V
11 °C 10 km+ - Var Var 2 kt METAR LFSL 260000Z AUTO VRB02KT CAVOK 11/10 Q1015
01:30
V
12 °C 10 km+ - 340° 340° 3 kt METAR LFSL 252330Z AUTO 34003KT CAVOK 12/10 Q1016
01:00
V
13 °C 10 km+ - 330° 330° 5 kt METAR LFSL 252300Z AUTO 33005KT CAVOK 13/11 Q1016
00:30
V
13 °C 10 km+ - 340° 340° 4 kt METAR LFSL 252230Z AUTO 34004KT CAVOK 13/11 Q1016
00:00
V
13 °C 10 km+ - 320° 320° 5 kt METAR LFSL 252200Z AUTO 32005KT CAVOK 13/11 Q1016

25. September 2022

Uhrzeit Code Wetter Temp. Sichtweite Wolkendecke Wind METAR/SPECI
23:30
V
13 °C 10 km+ - 310° 310° 4 kt METAR LFSL 252130Z AUTO 31004KT CAVOK 13/11 Q1016
23:00
V
14 °C 10 km+ - 330° 330° 6 kt METAR LFSL 252100Z AUTO 33006KT CAVOK 14/11 Q1017
22:30
V
14 °C 10 km+ - 320° 320° 5 kt METAR LFSL 252030Z AUTO 32005KT CAVOK 14/11 Q1017
22:00
V
14 °C 10 km+ - 340° 340° 6 kt METAR LFSL 252000Z AUTO 34006KT CAVOK 14/11 Q1016 NOSIG
21:30
V
14 °C 10 km+ 6.800 ft 350° 350° 5 kt METAR LFSL 251930Z AUTO 35005KT 9999 SCT046 OVC068 14/11 Q1016 NOSIG
21:00
V
14 °C 10 km+ - 360° 360° 3 kt METAR LFSL 251900Z AUTO 36003KT 340V040 CAVOK 14/11 Q1016 NOSIG
20:30
V
14 °C 10 km+ 3.400 ft 020° 020° 4 kt METAR LFSL 251830Z AUTO 02004KT 350V060 9999 FEW023 BKN034 OVC068 14/11 Q1016 NOSIG
20:00
V
15 °C 10 km+ 3.200 ft 030° 030° 5 kt METAR LFSL 251800Z AUTO 03005KT 9999 SCT024 BKN032 OVC038 15/11 Q1016 NOSIG
19:30
V
16 °C 10 km+ 3.500 ft 020° 020° 7 kt METAR LFSL 251730Z AUTO 02007KT 330V060 9999 BKN035 OVC042 16/10 Q1015 NOSIG
19:00
V
17 °C 10 km+ 4.500 ft 310° 310° 7 kt METAR LFSL 251700Z AUTO 31007KT 9999 FEW035 BKN045 BKN052 17/09 Q1015 TEMPO BKN015TCU
18:30
V
17 °C 10 km+ 4.000 ft 290° 290° 6 kt METAR LFSL 251630Z AUTO 29006KT 250V310 9999 BKN040/// BKN046/// //////TCU 17/09 Q1015 BECMG BKN035
18:00
V
17 °C 10 km+ 3.900 ft 290° 290° 9 kt METAR LFSL 251600Z AUTO 29009KT 250V330 9999 FEW033/// BKN039/// //////CB 17/09 Q1015 NOSIG
17:30
V
17 °C 10 km+ 3.100 ft 270° 270° 5 kt METAR LFSL 251530Z AUTO 27005KT 190V320 9999 BKN031 BKN039 17/09 Q1015 TEMPO BKN015TCU
17:00
V
17 °C 10 km+ 3.100 ft 290° 290° 7 kt METAR LFSL 251500Z AUTO 29007KT 250V330 9999 BKN031 BKN038 17/10 Q1015 TEMPO BKN015TCU
16:30
V
17 °C 10 km+ 4.900 ft 280° 280° 5 kt METAR LFSL 251430Z AUTO 28005KT 220V310 9999 SCT028 BKN049 17/10 Q1015 NOSIG
16:00
V
16 °C 10 km+ 4.500 ft Var Var 3 kt METAR LFSL 251400Z AUTO VRB03KT 9999 FEW024 OVC045 16/10 Q1015 TEMPO BKN015TCU
15:30
V
17 °C 10 km+ 4.200 ft 260° 260° 5 kt METAR LFSL 251330Z AUTO 26005KT 160V310 9999 OVC042 17/10 Q1016 TEMPO BKN015TCU
15:00
V
15 °C 10 km+ 3.800 ft 220° 220° 7 kt METAR LFSL 251300Z AUTO 22007KT 180V290 9999 FEW019 SCT025 OVC038 15/10 Q1015 TEMPO BKN015TCU
14:30
V
17 °C 10 km+ 3.600 ft 210° 210° 3 kt METAR LFSL 251230Z AUTO 21003KT 130V300 9999 OVC036 17/11 Q1016 TEMPO BKN015TCU
14:00
V
15 °C 10 km+ 3.100 ft Var Var 2 kt METAR LFSL 251200Z AUTO VRB02KT 9999 FEW022 OVC031 15/10 Q1016 TEMPO BKN015TCU
13:30
M
15 °C 10 km+ 2.200 ft Var Var 3 kt METAR LFSL 251130Z AUTO VRB03KT 9999 BKN022 OVC027 15/09 Q1016 TEMPO 1000 SHRA SCT005 BKN010TCU
13:00
M
15 °C 10 km+ 2.000 ft Var Var 2 kt METAR LFSL 251100Z AUTO VRB02KT 9999 BKN020 OVC025 15/10 Q1016 TEMPO 1000 SHRA SCT005 BKN010TCU
12:30
M
14 °C 10 km+ 1.500 ft Var Var 3 kt METAR LFSL 251030Z AUTO VRB03KT 9999 OVC015 14/10 Q1016 TEMPO 1000 SHRA SCT005 BKN010TCU
12:00
M
13 °C 10 km+ 1.200 ft Var Var 3 kt METAR LFSL 251000Z AUTO VRB03KT 9999 OVC012 13/10 Q1016 TEMPO 1000 SHRA SCT005 BKN010TCU
11:30
M
13 °C 10 km+ 1.200 ft 310° 310° 3 kt METAR LFSL 250930Z AUTO 31003KT 270V340 9999 OVC012 13/10 Q1016 TEMPO 1000 SHRA SCT005 BKN010TCU
11:00
M
12 °C 10 km+ 1.000 ft 330° 330° 3 kt METAR LFSL 250900Z AUTO 33003KT 290V020 9999 OVC010 12/10 Q1016 TEMPO 1000 SHRA SCT005 BKN010TCU
10:30
I
11 °C 10 km+ 800 ft Var Var 1 kt METAR LFSL 250830Z AUTO VRB01KT 9999 OVC008 11/10 Q1016 TEMPO 1000 SHRA SCT005 BKN010TCU
10:00
I
11 °C 10 km+ 500 ft Var Var 2 kt METAR LFSL 250800Z AUTO VRB02KT 9999 BKN005 OVC009 11/11 Q1015 TEMPO 1000 BR
09:30
L
11 °C 10 km+ 200 ft Var Var 1 kt METAR LFSL 250730Z AUTO VRB01KT 9999 BKN002 OVC009 11/11 Q1015 TEMPO 1000 BR SCT004 BKN009
09:00
L
11 °C 6 km - Var Var 3 kt METAR LFSL 250700Z AUTO VRB03KT 6000 VV/// 11/11 Q1015 TEMPO 1000 BR SCT004 BKN009
08:30
L
11 °C 900 m - Var Var 2 kt METAR LFSL 250630Z AUTO VRB02KT 1000 0900 R29/1500U BCFG VV/// 11/10 Q1015 TEMPO SCT004 BKN009
08:00
L
11 °C 450 m - Var Var 2 kt METAR LFSL 250600Z AUTO VRB02KT 0450 R29/0600U FG VV/// 11/11 Q1015 TEMPO 1000 BR SCT004 BKN009
07:30
L
10 °C 700 m - Var Var 2 kt METAR LFSL 250530Z AUTO VRB02KT 0750 0700 R29/0800U FG VV/// 10/10 Q1014 TEMPO 1000 BR SCT004 BKN009
07:00
L
10 °C 10 km+ - 170° 170° 1 kt METAR LFSL 250500Z AUTO 17001KT 9999 VV/// 10/09 Q1014 TEMPO 1000 BR SCT002 BKN005
06:30
I
9 °C 3,5 km 1.000 ft Var 000° 0 kt METAR LFSL 250430Z AUTO 00000KT 9999 3500 FEW004 BKN010 09/09 Q1014 TEMPO 1000 BR
06:00
V
10 °C 10 km+ 8.600 ft Var 000° 0 kt METAR LFSL 250400Z AUTO 00000KT 9999 SCT010 SCT054 BKN086 10/10 Q1014 TEMPO 1000 BR SCT002 BKN005
05:30
M
11 °C 10 km+ 1.100 ft Var 000° 0 kt METAR LFSL 250330Z AUTO 00000KT 9999 BKN011 OVC054 11/10 Q1014 TEMPO 1000 BR SCT002 BKN005
05:00
V
11 °C 10 km+ 5.000 ft Var 000° 0 kt METAR LFSL 250300Z AUTO 00000KT 9999 FEW012 SCT019 BKN050 11/10 Q1014 TEMPO 1000 BR SCT002 BKN005
04:30
V
11 °C 10 km+ - Var 000° 0 kt METAR LFSL 250230Z AUTO 00000KT 9999 SCT020 SCT049 11/10 Q1014
04:00
V
11 °C 10 km+ 8.200 ft Var Var 2 kt METAR LFSL 250200Z AUTO VRB02KT 9999 FEW017 BKN082 11/10 Q1014
03:30
V
11 °C 10 km+ - Var 000° 0 kt METAR LFSL 250130Z AUTO 00000KT CAVOK 11/11 Q1014
03:00
V
11 °C 10 km+ 4.900 ft Var Var 3 kt METAR LFSL 250100Z AUTO VRB03KT 9999 SCT039 BKN049 BKN060 11/11 Q1014
02:30
M
11 °C 10 km+ 2.900 ft Var Var 2 kt METAR LFSL 250030Z AUTO VRB02KT 9999 BKN029 BKN034 OVC050 11/11 Q1014
02:00
V
11 °C 10 km+ - Var Var 1 kt METAR LFSL 250000Z AUTO VRB01KT 9999 FEW026 11/10 Q1014
01:30
V
12 °C 10 km+ - Var Var 2 kt METAR LFSL 242330Z AUTO VRB02KT CAVOK 12/11 Q1014
01:00
V
12 °C 10 km+ - Var Var 3 kt METAR LFSL 242300Z AUTO VRB03KT CAVOK 12/11 Q1014
00:30
V
12 °C 10 km+ 8.600 ft 290° 290° 4 kt METAR LFSL 242230Z AUTO 29004KT 260V320 9999 -RA FEW044 OVC086 12/11 Q1014
00:00
V
12 °C 10 km+ 7.000 ft Var Var 3 kt METAR LFSL 242200Z AUTO VRB03KT 9999 -RA SCT025/// BKN070/// BKN098/// //////TCU 12/11 Q1015

24. September 2022

Uhrzeit Code Wetter Temp. Sichtweite Wolkendecke Wind METAR/SPECI
23:30
V
12 °C 10 km+ 8.400 ft Var Var 1 kt METAR LFSL 242130Z AUTO VRB01KT 9999 FEW023/// SCT072/// BKN084/// //////TCU 12/11 Q1015
23:00
V
13 °C 10 km+ 8.400 ft Var Var 1 kt METAR LFSL 242100Z AUTO VRB01KT 9999 FEW038/// SCT044/// BKN084/// //////CB 13/11 Q1015
22:30
V
13 °C 10 km+ - Var Var 2 kt METAR LFSL 242030Z AUTO VRB02KT CAVOK 13/12 Q1015
22:00
V
13 °C 10 km+ 6.800 ft Var Var 3 kt METAR LFSL 242000Z AUTO VRB03KT 9999 FEW016 BKN068 BKN078 13/11 Q1015 TEMPO 3000 SHRA BKN020TCU
21:30
V
14 °C 10 km+ - 140° 140° 4 kt METAR LFSL 241930Z AUTO 14004KT 120V180 9999 -RA NSC 14/12 Q1014 TEMPO 3000 SHRA BKN020TCU
21:00
V
14 °C 10 km+ - 340° 340° 4 kt METAR LFSL 241900Z AUTO 34004KT 310V050 9999 //////TCU 14/11 Q1013 TEMPO 3000 SHRA BKN010 BKN020CB
20:30
V
14 °C 10 km+ - 320° 320° 5 kt METAR LFSL 241830Z AUTO 32005KT 290V350 9999 //////CB 14/12 Q1013 TEMPO 3000 SHRA BKN010 BKN020CB
20:00
V
14 °C 10 km+ 10.000 ft 270° 270° 5 kt METAR LFSL 241800Z AUTO 27005KT 210V310 9999 -RA FEW018/// SCT088/// BKN100/// //////CB 14/12 Q1013 TEMPO 3000 SHRA BKN010 BKN020CB
19:30
M
15 °C 10 km+ 1.800 ft 300° 300° 5 kt METAR LFSL 241730Z AUTO 30005KT 250V010 9999 BKN018/// BKN041/// OVC110/// //////CB 15/12 Q1014 TEMPO 3000 SHRA BKN010 BKN020CB
19:00
V
16 °C 10 km+ 6.600 ft 340° 340° 5 kt METAR LFSL 241700Z AUTO 34005KT 9999 FEW023/// BKN066/// BKN082/// //////CB 16/10 Q1013 TEMPO 3000 SHRA BKN010 BKN020CB
18:30
M
17 °C 10 km+ 2.100 ft Var Var 2 kt METAR LFSL 241630Z AUTO VRB02KT 9999 BKN021/// BKN026/// //////TCU 17/11 Q1013 TEMPO 3000 SHRA BKN010 BKN020CB
18:00
V
17 °C 10 km+ 8.000 ft 330° 330° 4 kt METAR LFSL 241600Z AUTO 33004KT 240V010 9999 FEW016/// BKN080/// BKN100/// //////CB 17/11 Q1013 TEMPO 3000 SHRA BKN010 BKN020CB
17:30
V
17 °C 10 km+ 19.000 ft 200° 200° 4 kt METAR LFSL 241530Z AUTO 20004KT 160V270 9999 VCTS FEW032/// SCT086/// BKN190/// //////CB 17/13 Q1013 TEMPO 2000 TSRA BKN010 BKN020CB
17:00
V
17 °C 10 km+ 4.400 ft 210° 210° 7 kt METAR LFSL 241500Z AUTO 21007KT 180V260 9999 -RA FEW022/// SCT036/// BKN044/// //////CB 17/13 Q1013 TEMPO 2000 TSRA BKN010 BKN020CB
16:30
V
19 °C 10 km+ - 210° 210° 7 kt METAR LFSL 241430Z AUTO 21007KT 170V260 9999 FEW026/// ///CB 19/12 Q1013 TEMPO 4000 SHRA
16:00
V
19 °C 10 km+ 15.000 ft 220° 220° 6 kt METAR LFSL 241400Z AUTO 22006KT 160V260 9999 FEW029/// BKN150/// //////CB 19/11 Q1013 TEMPO 4000 SHRA
15:30
V
19 °C 10 km+ 4.300 ft 240° 240° 5 kt METAR LFSL 241330Z AUTO 24005KT 170V300 9999 FEW030/// SCT037/// BKN043/// ///TCU 19/12 Q1013 TEMPO 4000 SHRA BKN020CB
15:00
V
20 °C 10 km+ 3.500 ft Var Var 4 kt METAR LFSL 241300Z AUTO VRB04KT 9999 SCT027/// BKN035/// BKN042/// ///CB 20/12 Q1013 TEMPO 4000 SHRA
14:30
V
19 °C 10 km+ 4.300 ft Var Var 6 kt METAR LFSL 241230Z AUTO VRB06KT 9999 SCT026 SCT032 BKN043 19/12 Q1014 TEMPO 4000 SHRA BKN020CB
14:00
V
19 °C 10 km+ 3.600 ft 220° 220° 5 kt METAR LFSL 241200Z AUTO 22005KT 140V300 9999 SCT028 BKN036 OVC047 19/12 Q1014 TEMPO 4000 SHRA BKN020TCU
13:30
V
18 °C 10 km+ 4.000 ft Var Var 4 kt METAR LFSL 241130Z AUTO VRB04KT 9999 SCT027 SCT033 BKN040 18/11 Q1014 TEMPO 4000 SHRA BKN020TCU
13:00
M
18 °C 10 km+ 2.600 ft Var Var 4 kt METAR LFSL 241100Z AUTO VRB04KT 9999 OVC026 18/11 Q1014 TEMPO 4000 SHRA BKN020TCU
12:30
M
19 °C 10 km+ 2.800 ft 240° 240° 3 kt METAR LFSL 241030Z AUTO 24003KT 190V320 9999 BKN028 BKN043 BKN052 19/11 Q1015 TEMPO 4000 SHRA BKN020TCU
12:00
V
18 °C 10 km+ - Var Var 3 kt METAR LFSL 241000Z AUTO VRB03KT 9999 SCT025 18/11 Q1015 TEMPO 4000 SHRA BKN020TCU
11:30
V
17 °C 10 km+ - Var Var 3 kt METAR LFSL 240930Z AUTO VRB03KT 9999 SCT022 17/11 Q1015 TEMPO 4000 SHRA BKN020TCU
11:00
V
16 °C 10 km+ - 190° 190° 4 kt METAR LFSL 240900Z AUTO 19004KT 160V240 9999 SCT018 16/11 Q1015 TEMPO 4000 SHRA BKN020TCU
10:30
M
16 °C 10 km+ 1.400 ft Var Var 4 kt METAR LFSL 240830Z AUTO VRB04KT 9999 OVC014 16/12 Q1015 BECMG BKN020
10:00
M
15 °C 10 km+ 1.200 ft 180° 180° 3 kt METAR LFSL 240800Z AUTO 18003KT 110V260 9999 BKN012 BKN094 15/12 Q1015 TEMPO 3000 BR OVC005
09:30
M
14 °C 10 km+ 1.400 ft Var Var 3 kt METAR LFSL 240730Z AUTO VRB03KT 9999 FEW006 BKN014 OVC094 14/13 Q1015 TEMPO 3000 BR OVC005
09:00
M
14 °C 10 km+ 1.500 ft Var Var 3 kt METAR LFSL 240700Z AUTO VRB03KT 9999 OVC015 14/13 Q1015 TEMPO 3000 BR OVC005
08:30
M
13 °C 10 km+ 1.200 ft Var Var 2 kt METAR LFSL 240630Z AUTO VRB02KT 9999 OVC012 13/12 Q1015 TEMPO 3000 BR OVC005
08:00
M
12 °C 9 km 1.100 ft Var Var 1 kt METAR LFSL 240600Z AUTO VRB01KT 9000 OVC011 12/12 Q1015 TEMPO 3000 BR OVC005
07:30
M
12 °C 8 km 1.200 ft Var Var 2 kt METAR LFSL 240530Z AUTO VRB02KT 8000 OVC012 12/11 Q1014 TEMPO 3000 BR OVC005
07:00
M
12 °C 6 km 1.300 ft 100° 100° 1 kt METAR LFSL 240500Z AUTO 10001KT 6000 FEW003 BKN013 BKN035 12/12 Q1014 TEMPO 0300 FG VV///
06:30
M
13 °C 9 km 1.200 ft Var Var 2 kt METAR LFSL 240430Z AUTO VRB02KT 9000 BKN012 13/12 Q1014 TEMPO 0300 FG VV///
06:00
M
13 °C 10 km+ 1.300 ft 150° 150° 1 kt METAR LFSL 240400Z AUTO 15001KT 9999 FEW006 OVC013 13/12 Q1014 TEMPO 0300 FG VV///
05:30
I
13 °C 9 km 600 ft Var Var 1 kt METAR LFSL 240330Z AUTO VRB01KT 9000 OVC006 13/12 Q1015 TEMPO 0300 FG VV///
05:00
L
13 °C 8 km 400 ft Var 000° 0 kt METAR LFSL 240300Z AUTO 00000KT 8000 OVC004 13/13 Q1015 TEMPO 0300 FG VV///
04:30
L
13 °C 8 km 300 ft Var Var 2 kt METAR LFSL 240230Z AUTO VRB02KT 8000 OVC003 13/12 Q1015 TEMPO 0300 FG VV///
04:00
L
13 °C 7 km 200 ft Var Var 2 kt METAR LFSL 240200Z AUTO VRB02KT 7000 OVC002 13/13 Q1015
03:30
L
14 °C 5 km 200 ft Var Var 2 kt METAR LFSL 240130Z AUTO VRB02KT 5000 BR OVC002 14/14 Q1015
03:00
L
14 °C 4,2 km - Var Var 3 kt METAR LFSL 240100Z AUTO VRB03KT 4200 BR VV/// 14/14 Q1015
02:30
L
14 °C 2,8 km - 180° 180° 4 kt METAR LFSL 240030Z AUTO 18004KT 140V240 2800 BR VV/// 14/13 Q1015
02:00
L
14 °C 7 km - 180° 180° 4 kt METAR LFSL 240000Z AUTO 18004KT 7000 VV/// 14/14 Q1016
01:30
L
13 °C 750 m - 140° 140° 4 kt METAR LFSL 232330Z AUTO 14004KT 0800 0750 R29/0900D FG VV/// 13/13 Q1016
01:00
L
13 °C 5 km - Var Var 3 kt METAR LFSL 232300Z AUTO VRB03KT 5000 BR VV/// 13/13 Q1016
00:30
M
13 °C 6 km 11.000 ft Var Var 3 kt METAR LFSL 232230Z AUTO VRB03KT 6000 SCT022 SCT045 BKN110 13/13 Q1017
00:00
V
14 °C 10 km+ - 110° 110° 3 kt METAR LFSL 232200Z AUTO 11003KT CAVOK 14/13 Q1017

23. September 2022

Uhrzeit Code Wetter Temp. Sichtweite Wolkendecke Wind METAR/SPECI
23:30
V
14 °C 10 km+ - 110° 110° 4 kt METAR LFSL 232130Z AUTO 11004KT CAVOK 14/13 Q1017
23:00
V
15 °C 10 km+ - Var Var 2 kt METAR LFSL 232100Z AUTO VRB02KT CAVOK 15/13 Q1016
22:30
V
15 °C 10 km+ - Var Var 1 kt METAR LFSL 232030Z AUTO VRB01KT CAVOK 15/13 Q1016 TEMPO BKN060TCU
22:00
V
15 °C 10 km+ - Var Var 2 kt METAR LFSL 232000Z AUTO VRB02KT CAVOK 15/13 Q1016 TEMPO BKN060TCU
21:30
V
15 °C 10 km+ - Var Var 3 kt METAR LFSL 231930Z AUTO VRB03KT CAVOK 15/13 Q1016 TEMPO BKN060TCU
21:00
V
16 °C 10 km+ - 260° 260° 3 kt METAR LFSL 231900Z AUTO 26003KT 190V330 CAVOK 16/13 Q1016 TEMPO 3000 TSRA BKN060TCU
20:30
V
16 °C 10 km+ 11.000 ft 250° 250° 3 kt METAR LFSL 231830Z AUTO 25003KT 200V320 9999 FEW019/// OVC110/// //////TCU 16/14 Q1016 TEMPO 3000 TSRA BKN040CB
20:00
V
17 °C 10 km+ - 180° 180° 4 kt METAR LFSL 231800Z AUTO 18004KT 140V220 9999 -RA ///CB 17/14 Q1016 TEMPO 3000 TSRA
19:30
V
19 °C 10 km+ - 200° 200° 3 kt METAR LFSL 231730Z AUTO 20003KT 170V250 9999 -RA ///CB 19/14 Q1016 TEMPO 3000 TSRA
19:00
V
20 °C 10 km+ - Var Var 3 kt METAR LFSL 231700Z AUTO VRB03KT 9999 ///TCU 20/13 Q1015 TEMPO 3000 TSRA BKN040CB
18:30
V
20 °C 10 km+ - Var Var 2 kt METAR LFSL 231630Z AUTO VRB02KT 9999 //////CB 20/13 Q1015 TEMPO 3000 TSRA
18:00
V
21 °C 10 km+ - 290° 290° 6 kt METAR LFSL 231600Z AUTO 29006KT 9999 FEW039 SCT110 21/13 Q1015 TEMPO 3000 TSRA BKN040CB
17:30
V
21 °C 10 km+ - 300° 300° 4 kt METAR LFSL 231530Z AUTO 30004KT 240V330 9999 ///TCU 21/13 Q1015 TEMPO 3000 TSRA BKN040CB
17:00
V
22 °C 10 km+ - 270° 270° 4 kt METAR LFSL 231500Z AUTO 27004KT 180V340 9999 ///TCU 22/13 Q1016 TEMPO 3000 TSRA BKN040CB
Ältere Daten

Wir und Dritte verfolgen dein Internetverhalten auf unserer Website mit Cookies. Wenn du fortfährst, gehen wir davon aus, dass du mit unserer Cookie-Richtlinie einverstanden bist. Mehr erfahren